Time,TemperatureF,DewpointF,PressureIn,WindDirection,WindDirectionDegrees,WindSpeedMPH,WindSpeedGustMPH,Humidity,HourlyPrecipIn,Conditions,Clouds,dailyrainin,SoftwareType,DateUTC
2013-06-13 00:00:00,77.4,24.4,29.75,SE,144,1.0,2.0,14,0.00,,,0.00,Wunderground v.1.15,2013-06-13 07:00:00,
2013-06-13 00:05:00,78.3,25.1,29.75,SE,144,2.0,5.0,14,0.00,,,0.00,Wunderground v.1.15,2013-06-13 07:05:00,
2013-06-13 00:15:00,79.4,24.2,29.75,SE,144,4.0,5.0,13,0.00,,,0.00,Wunderground v.1.15,2013-06-13 07:15:00,
2013-06-13 00:20:00,78.8,25.5,29.76,SE,144,3.0,3.0,14,0.00,,,0.00,Wunderground v.1.15,2013-06-13 07:20:00,
2013-06-13 00:25:00,77.7,24.7,29.76,SE,144,2.0,3.0,14,0.00,,,0.00,Wunderground v.1.15,2013-06-13 07:25:00,
2013-06-13 00:35:00,76.0,25.0,29.76,SE,144,2.0,2.0,15,0.00,,,0.00,Wunderground v.1.15,2013-06-13 07:35:00,
2013-06-13 00:40:00,76.0,25.0,29.76,SE,144,2.0,2.0,15,0.00,,,0.00,Wunderground v.1.15,2013-06-13 07:40:00,
2013-06-13 00:45:00,76.1,25.1,29.76,SE,144,2.0,2.0,15,0.00,,,0.00,Wunderground v.1.15,2013-06-13 07:45:00,
2013-06-13 00:50:00,75.6,24.7,29.76,SE,144,2.0,2.0,15,0.00,,,0.00,Wunderground v.1.15,2013-06-13 07:50:00,
2013-06-13 00:55:00,74.9,25.6,29.76,SE,144,2.0,2.0,16,0.00,,,0.00,Wunderground v.1.15,2013-06-13 07:55:00,
2013-06-13 01:05:00,74.4,29.4,29.76,SE,143,2.0,5.0,19,0.00,,,0.00,Wunderground v.1.15,2013-06-13 08:05:00,
2013-06-13 01:15:00,76.8,28.7,29.76,SE,146,6.0,6.0,17,0.00,,,0.00,Wunderground v.1.15,2013-06-13 08:15:00,
2013-06-13 01:20:00,77.2,29.0,29.76,SSE,152,4.0,6.0,17,0.00,,,0.00,Wunderground v.1.15,2013-06-13 08:20:00,
2013-06-13 01:25:00,78.1,33.7,29.76,South,174,5.0,6.0,20,0.00,,,0.00,Wunderground v.1.15,2013-06-13 08:25:00,
2013-06-13 01:30:00,78.3,29.9,29.75,South,177,6.0,6.0,17,0.00,,,0.00,Wunderground v.1.15,2013-06-13 08:30:00,
2013-06-13 01:40:00,78.3,32.6,29.75,South,186,6.0,6.0,19,0.00,,,0.00,Wunderground v.1.15,2013-06-13 08:40:00,
2013-06-13 01:45:00,77.7,33.4,29.75,South,186,4.0,6.0,20,0.00,,,0.00,Wunderground v.1.15,2013-06-13 08:45:00,
2013-06-13 01:50:00,77.6,34.6,29.75,South,186,3.0,3.0,21,0.00,,,0.00,Wunderground v.1.15,2013-06-13 08:50:00,
2013-06-13 01:55:00,78.1,35.0,29.75,South,186,2.0,3.0,21,0.00,,,0.00,Wunderground v.1.15,2013-06-13 08:55:00,
2013-06-13 02:00:00,77.7,35.8,29.74,South,186,3.0,4.0,22,0.00,,,0.00,Wunderground v.1.15,2013-06-13 09:00:00,
2013-06-13 02:05:00,77.6,35.7,29.74,South,186,4.0,6.0,22,0.00,,,0.00,Wunderground v.1.15,2013-06-13 09:05:00,
2013-06-13 02:15:00,77.2,34.2,29.75,South,186,2.0,4.0,21,0.00,,,0.00,Wunderground v.1.15,2013-06-13 09:15:00,
2013-06-13 08:00:00,82.8,40.1,29.78,East,101,4.0,6.0,22,0.00,,,0.00,Wunderground v.1.15,2013-06-13 15:00:00,
2013-06-13 08:10:00,83.0,39.0,29.78,East,97,5.0,5.0,21,0.00,,,0.00,Wunderground v.1.15,2013-06-13 15:10:00,
2013-06-13 08:15:00,82.8,40.1,29.79,ENE,76,5.0,5.0,22,0.00,,,0.00,Wunderground v.1.15,2013-06-13 15:15:00,
2013-06-13 08:20:00,83.4,39.4,29.78,ENE,76,4.0,4.0,21,0.00,,,0.00,Wunderground v.1.15,2013-06-13 15:20:00,
2013-06-13 08:25:00,83.2,39.2,29.78,ENE,75,3.0,4.0,21,0.00,,,0.00,Wunderground v.1.15,2013-06-13 15:25:00,
2013-06-13 08:30:00,82.8,40.1,29.78,ENE,75,3.0,5.0,22,0.00,,,0.00,Wunderground v.1.15,2013-06-13 15:30:00,
2013-06-13 08:35:00,83.6,39.5,29.78,ENE,75,2.0,5.0,21,0.00,,,0.00,Wunderground v.1.15,2013-06-13 15:35:00,
2013-06-13 08:40:00,84.1,39.9,29.78,ENE,75,3.0,3.0,21,0.00,,,0.00,Wunderground v.1.15,2013-06-13 15:40:00,
2013-06-13 08:45:00,84.5,40.3,29.78,NE,51,3.0,6.0,21,0.00,,,0.00,Wunderground v.1.15,2013-06-13 15:45:00,
2013-06-13 08:50:00,84.3,40.1,29.78,NE,49,3.0,7.0,21,0.00,,,0.00,Wunderground v.1.15,2013-06-13 15:50:00,
2013-06-13 09:00:00,84.3,40.1,29.78,NNE,13,4.0,5.0,21,0.00,,,0.00,Wunderground v.1.15,2013-06-13 16:00:00,
2013-06-13 09:05:00,84.3,40.1,29.78,North,360,5.0,5.0,21,0.00,,,0.00,Wunderground v.1.15,2013-06-13 16:05:00,
2013-06-13 09:15:00,84.9,39.3,29.78,North,9,5.0,7.0,20,0.00,,,0.00,Wunderground v.1.15,2013-06-13 16:15:00,
2013-06-13 09:20:00,85.1,39.5,29.78,NNE,13,5.0,5.0,20,0.00,,,0.00,Wunderground v.1.15,2013-06-13 16:20:00,
2013-06-13 09:30:00,86.1,40.3,29.78,NNE,25,5.0,5.0,20,0.00,,,0.00,Wunderground v.1.15,2013-06-13 16:30:00,
2013-06-13 09:35:00,86.1,40.3,29.78,NNE,31,5.0,5.0,20,0.00,,,0.00,Wunderground v.1.15,2013-06-13 16:35:00,
2013-06-13 09:40:00,85.9,40.2,29.78,NE,39,5.0,5.0,20,0.00,,,0.00,Wunderground v.1.15,2013-06-13 16:40:00,
2013-06-13 09:45:00,85.9,38.8,29.78,ENE,57,5.0,6.0,19,0.00,,,0.00,Wunderground v.1.15,2013-06-13 16:45:00,
2013-06-13 09:50:00,86.1,39.0,29.78,NE,40,4.0,5.0,19,0.00,,,0.00,Wunderground v.1.15,2013-06-13 16:50:00,
2013-06-13 09:55:00,87.2,38.5,29.78,NNE,26,5.0,5.0,18,0.00,,,0.00,Wunderground v.1.15,2013-06-13 16:55:00,
2013-06-13 10:00:00,88.0,39.2,29.78,East,86,3.0,7.0,18,0.00,,,0.00,Wunderground v.1.15,2013-06-13 17:00:00,
2013-06-13 10:05:00,88.4,36.5,29.77,NNW,342,4.0,7.0,16,0.00,,,0.00,Wunderground v.1.15,2013-06-13 17:05:00,
2013-06-13 10:15:00,88.0,36.2,29.77,North,9,6.0,9.0,16,0.00,,,0.00,Wunderground v.1.15,2013-06-13 17:15:00,
2013-06-13 10:20:00,88.0,36.2,29.77,North,9,5.0,5.0,16,0.00,,,0.00,Wunderground v.1.15,2013-06-13 17:20:00,
2013-06-13 10:25:00,88.4,36.5,29.78,NNE,19,3.0,5.0,16,0.00,,,0.00,Wunderground v.1.15,2013-06-13 17:25:00,
2013-06-13 10:30:00,89.0,35.3,29.77,NW,325,4.0,5.0,15,0.00,,,0.00,Wunderground v.1.15,2013-06-13 17:30:00,
2013-06-13 10:35:00,89.5,35.7,29.78,NNW,327,5.0,5.0,15,0.00,,,0.00,Wunderground v.1.15,2013-06-13 17:35:00,
2013-06-13 10:40:00,89.7,35.9,29.77,NNW,329,4.0,5.0,15,0.00,,,0.00,Wunderground v.1.15,2013-06-13 17:40:00,
2013-06-13 10:45:00,89.7,35.9,29.77,NNE,23,5.0,5.0,15,0.00,,,0.00,Wunderground v.1.15,2013-06-13 17:45:00,
2013-06-13 10:50:00,90.3,36.4,29.77,NNW,327,6.0,8.0,15,0.00,,,0.00,Wunderground v.1.15,2013-06-13 17:50:00,
2013-06-13 10:55:00,90.3,36.4,29.77,NNW,335,6.0,8.0,15,0.00,,,0.00,Wunderground v.1.15,2013-06-13 17:55:00,
2013-06-13 11:05:00,90.3,34.6,29.77,North,351,4.0,10.0,14,0.00,,,0.00,Wunderground v.1.15,2013-06-13 18:05:00,
2013-06-13 11:15:00,90.3,36.4,29.76,North,10,7.0,7.0,15,0.00,,,0.00,Wunderground v.1.15,2013-06-13 18:15:00,
2013-06-13 11:20:00,91.0,35.2,29.76,NNW,344,6.0,6.0,14,0.00,,,0.00,Wunderground v.1.15,2013-06-13 18:20:00,
2013-06-13 11:25:00,91.8,33.9,29.76,NNW,332,6.0,6.0,13,0.00,,,0.00,Wunderground v.1.15,2013-06-13 18:25:00,
2013-06-13 11:30:00,91.4,33.6,29.76,NNW,333,6.0,6.0,13,0.00,,,0.00,Wunderground v.1.15,2013-06-13 18:30:00,
2013-06-13 11:40:00,92.1,34.2,29.75,WNW,300,7.0,7.0,13,0.00,,,0.00,Wunderground v.1.15,2013-06-13 18:40:00,
2013-06-13 11:45:00,92.1,34.2,29.75,NNE,12,7.0,7.0,13,0.00,,,0.00,Wunderground v.1.15,2013-06-13 18:45:00,
2013-06-13 11:50:00,92.3,34.3,29.75,NW,320,6.0,6.0,13,0.00,,,0.00,Wunderground v.1.15,2013-06-13 18:50:00,
2013-06-13 11:55:00,92.3,34.3,29.75,NW,315,6.0,7.0,13,0.00,,,0.00,Wunderground v.1.15,2013-06-13 18:55:00,
2013-06-13 12:00:00,92.1,34.2,29.75,NNW,327,6.0,8.0,13,0.00,,,0.00,Wunderground v.1.15,2013-06-13 19:00:00,
2013-06-13 12:05:00,92.3,32.3,29.75,North,355,7.0,8.0,12,0.00,,,0.00,Wunderground v.1.15,2013-06-13 19:05:00,
2013-06-13 12:15:00,93.4,33.2,29.74,NW,316,8.0,9.0,12,0.00,,,0.00,Wunderground v.1.15,2013-06-13 19:15:00,
2013-06-13 12:20:00,93.4,33.2,29.74,NNW,333,7.0,8.0,12,0.00,,,0.00,Wunderground v.1.15,2013-06-13 19:20:00,
2013-06-13 12:25:00,93.6,33.3,29.74,NW,321,7.0,9.0,12,0.00,,,0.00,Wunderground v.1.15,2013-06-13 19:25:00,
2013-06-13 12:30:00,93.4,33.2,29.74,NNW,329,10.0,10.0,12,0.00,,,0.00,Wunderground v.1.15,2013-06-13 19:30:00,
2013-06-13 12:35:00,92.9,32.8,29.74,NW,319,9.0,10.0,12,0.00,,,0.00,Wunderground v.1.15,2013-06-13 19:35:00,
2013-06-13 12:45:00,93.4,33.2,29.74,NNW,329,8.0,10.0,12,0.00,,,0.00,Wunderground v.1.15,2013-06-13 19:45:00,
2013-06-13 12:50:00,93.4,33.2,29.73,NNW,343,9.0,9.0,12,0.00,,,0.00,Wunderground v.1.15,2013-06-13 19:50:00,
2013-06-13 12:55:00,93.8,31.3,29.73,NNW,338,8.0,13.0,11,0.00,,,0.00,Wunderground v.1.15,2013-06-13 19:55:00,
2013-06-13 13:00:00,93.8,33.5,29.73,West,268,7.0,7.0,12,0.00,,,0.00,Wunderground v.1.15,2013-06-13 20:00:00,
2013-06-13 13:05:00,93.6,33.3,29.72,North,5,9.0,9.0,12,0.00,,,0.00,Wunderground v.1.15,2013-06-13 20:05:00,
2013-06-13 13:15:00,94.0,33.7,29.73,NNW,327,10.0,10.0,12,0.00,,,0.00,Wunderground v.1.15,2013-06-13 20:15:00,
2013-06-13 13:20:00,93.4,33.2,29.72,NW,307,10.0,10.0,12,0.00,,,0.00,Wunderground v.1.15,2013-06-13 20:20:00,
2013-06-13 13:25:00,93.4,33.2,29.72,NW,304,9.0,10.0,12,0.00,,,0.00,Wunderground v.1.15,2013-06-13 20:25:00,
2013-06-13 13:30:00,92.9,32.8,29.72,NNW,339,8.0,13.0,12,0.00,,,0.00,Wunderground v.1.15,2013-06-13 20:30:00,
2013-06-13 13:35:00,93.4,33.2,29.72,NNW,343,8.0,13.0,12,0.00,,,0.00,Wunderground v.1.15,2013-06-13 20:35:00,
2013-06-13 13:40:00,93.4,33.2,29.71,WNW,302,8.0,10.0,12,0.00,,,0.00,Wunderground v.1.15,2013-06-13 20:40:00,
2013-06-13 13:50:00,93.4,31.0,29.71,NNW,344,8.0,8.0,11,0.00,,,0.00,Wunderground v.1.15,2013-06-13 20:50:00,
2013-06-13 13:55:00,94.0,31.5,29.71,NW,309,9.0,9.0,11,0.00,,,0.00,Wunderground v.1.15,2013-06-13 20:55:00,
2013-06-13 14:00:00,94.5,31.9,29.70,NNW,339,9.0,9.0,11,0.00,,,0.00,Wunderground v.1.15,2013-06-13 21:00:00,
2013-06-13 14:05:00,94.3,31.7,29.70,North,360,7.0,9.0,11,0.00,,,0.00,Wunderground v.1.15,2013-06-13 21:05:00,
2013-06-13 14:15:00,94.7,32.0,29.70,NW,318,9.0,11.0,11,0.00,,,0.00,Wunderground v.1.15,2013-06-13 21:15:00,
2013-06-13 14:20:00,94.5,31.9,29.69,North,355,9.0,9.0,11,0.00,,,0.00,Wunderground v.1.15,2013-06-13 21:20:00,
2013-06-13 14:25:00,94.7,32.0,29.69,WNW,290,6.0,12.0,11,0.00,,,0.00,Wunderground v.1.15,2013-06-13 21:25:00,
2013-06-13 14:30:00,94.3,31.7,29.69,NW,315,8.0,8.0,11,0.00,,,0.00,Wunderground v.1.15,2013-06-13 21:30:00,
2013-06-13 14:35:00,94.7,34.2,29.69,NW,325,9.0,9.0,12,0.00,,,0.00,Wunderground v.1.15,2013-06-13 21:35:00,
2013-06-13 14:40:00,95.1,32.3,29.69,NNW,336,8.0,8.0,11,0.00,,,0.00,Wunderground v.1.15,2013-06-13 21:40:00,
2013-06-13 14:45:00,95.6,30.3,29.68,NNW,335,8.0,10.0,10,0.00,,,0.00,Wunderground v.1.15,2013-06-13 21:45:00,
2013-06-13 14:50:00,95.4,30.2,29.68,NW,307,9.0,9.0,10,0.00,,,0.00,Wunderground v.1.15,2013-06-13 21:50:00,
2013-06-13 14:55:00,95.4,32.6,29.68,NNW,328,8.0,9.0,11,0.00,,,0.00,Wunderground v.1.15,2013-06-13 21:55:00,
2013-06-13 15:00:00,95.4,32.6,29.68,North,355,6.0,6.0,11,0.00,,,0.00,Wunderground v.1.15,2013-06-13 22:00:00,
2013-06-13 15:05:00,95.1,32.3,29.67,NW,310,8.0,15.0,11,0.00,,,0.00,Wunderground v.1.15,2013-06-13 22:05:00,
2013-06-13 15:15:00,95.1,32.3,29.67,NW,318,10.0,16.0,11,0.00,,,0.00,Wunderground v.1.15,2013-06-13 22:15:00,
2013-06-13 15:20:00,95.1,32.3,29.67,North,355,10.0,12.0,11,0.00,,,0.00,Wunderground v.1.15,2013-06-13 22:20:00,
2013-06-13 15:25:00,95.4,32.6,29.67,WNW,296,9.0,12.0,11,0.00,,,0.00,Wunderground v.1.15,2013-06-13 22:25:00,
2013-06-13 15:30:00,94.7,32.0,29.67,NNW,336,10.0,10.0,11,0.00,,,0.00,Wunderground v.1.15,2013-06-13 22:30:00,
2013-06-13 15:35:00,94.7,34.2,29.67,NNW,337,9.0,10.0,12,0.00,,,0.00,Wunderground v.1.15,2013-06-13 22:35:00,
2013-06-13 15:45:00,94.9,34.3,29.66,NNW,336,10.0,12.0,12,0.00,,,0.00,Wunderground v.1.15,2013-06-13 22:45:00,
2013-06-13 15:50:00,94.9,34.3,29.66,NW,306,12.0,12.0,12,0.00,,,0.00,Wunderground v.1.15,2013-06-13 22:50:00,
2013-06-13 15:55:00,94.7,34.2,29.66,NNW,327,11.0,12.0,12,0.00,,,0.00,Wunderground v.1.15,2013-06-13 22:55:00,
2013-06-13 16:00:00,94.7,34.2,29.66,NNW,340,11.0,12.0,12,0.00,,,0.00,Wunderground v.1.15,2013-06-13 23:00:00,
2013-06-13 16:05:00,94.0,33.7,29.66,NW,318,11.0,12.0,12,0.00,,,0.00,Wunderground v.1.15,2013-06-13 23:05:00,
2013-06-13 16:15:00,91.8,33.9,29.66,NNW,331,12.0,12.0,13,0.00,,,0.00,Wunderground v.1.15,2013-06-13 23:15:00,
2013-06-13 16:20:00,92.3,34.3,29.65,WNW,300,11.0,11.0,13,0.00,,,0.00,Wunderground v.1.15,2013-06-13 23:20:00,
2013-06-13 16:25:00,93.2,35.0,29.65,NW,308,13.0,15.0,13,0.00,,,0.00,Wunderground v.1.15,2013-06-13 23:25:00,
2013-06-13 16:30:00,93.4,35.2,29.64,NW,321,13.0,13.0,13,0.00,,,0.00,Wunderground v.1.15,2013-06-13 23:30:00,
2013-06-13 16:35:00,93.4,35.2,29.64,WNW,292,13.0,13.0,13,0.00,,,0.00,Wunderground v.1.15,2013-06-13 23:35:00,
2013-06-13 16:40:00,93.4,35.2,29.65,NW,305,13.0,14.0,13,0.00,,,0.00,Wunderground v.1.15,2013-06-13 23:40:00,
2013-06-13 16:50:00,93.2,35.0,29.65,NW,323,13.0,13.0,13,0.00,,,0.00,Wunderground v.1.15,2013-06-13 23:50:00,
2013-06-13 16:55:00,93.4,33.2,29.65,NW,316,12.0,13.0,12,0.00,,,0.00,Wunderground v.1.15,2013-06-13 23:55:00,
2013-06-13 17:00:00,92.9,34.8,29.65,NW,306,12.0,12.0,13,0.00,,,0.00,Wunderground v.1.15,2013-06-14 00:00:00,
2013-06-13 17:05:00,92.9,34.8,29.64,WNW,286,13.0,14.0,13,0.00,,,0.00,Wunderground v.1.15,2013-06-14 00:05:00,
2013-06-13 17:15:00,92.3,34.3,29.65,NW,314,14.0,14.0,13,0.00,,,0.00,Wunderground v.1.15,2013-06-14 00:15:00,
2013-06-13 17:20:00,91.6,33.8,29.64,WNW,302,14.0,19.0,13,0.00,,,0.00,Wunderground v.1.15,2013-06-14 00:20:00,
2013-06-13 17:25:00,91.6,35.7,29.65,WNW,298,15.0,19.0,14,0.00,,,0.00,Wunderground v.1.15,2013-06-14 00:25:00,
2013-06-13 17:30:00,91.6,35.7,29.65,NNW,329,14.0,14.0,14,0.00,,,0.00,Wunderground v.1.15,2013-06-14 00:30:00,
2013-06-13 17:35:00,91.6,35.7,29.65,WNW,302,13.0,14.0,14,0.00,,,0.00,Wunderground v.1.15,2013-06-14 00:35:00,
2013-06-13 17:40:00,91.2,35.3,29.65,WNW,298,14.0,14.0,14,0.00,,,0.00,Wunderground v.1.15,2013-06-14 00:40:00,
2013-06-13 17:45:00,91.0,35.2,29.65,NW,311,14.0,14.0,14,0.00,,,0.00,Wunderground v.1.15,2013-06-14 00:45:00,
2013-06-13 17:50:00,91.0,35.2,29.65,NNW,338,13.0,15.0,14,0.00,,,0.00,Wunderground v.1.15,2013-06-14 00:50:00,
2013-06-13 17:55:00,90.5,34.8,29.65,NW,304,13.0,15.0,14,0.00,,,0.00,Wunderground v.1.15,2013-06-14 00:55:00,
2013-06-13 18:00:00,90.3,36.4,29.65,NW,311,14.0,15.0,15,0.00,,,0.00,Wunderground v.1.15,2013-06-14 01:00:00,
2013-06-13 18:05:00,90.1,36.2,29.65,NNW,327,13.0,15.0,15,0.00,,,0.00,Wunderground v.1.15,2013-06-14 01:05:00,
2013-06-13 18:15:00,89.5,35.7,29.65,NW,322,13.0,15.0,15,0.00,,,0.00,Wunderground v.1.15,2013-06-14 01:15:00,
2013-06-13 18:25:00,89.3,35.6,29.66,NW,319,13.0,14.0,15,0.00,,,0.00,Wunderground v.1.15,2013-06-14 01:25:00,
2013-06-13 18:30:00,89.0,35.3,29.66,NW,306,12.0,14.0,15,0.00,,,0.00,Wunderground v.1.15,2013-06-14 01:30:00,
2013-06-13 18:35:00,88.8,35.2,29.66,NW,304,11.0,14.0,15,0.00,,,0.00,Wunderground v.1.15,2013-06-14 01:35:00,
2013-06-13 18:40:00,88.6,35.0,29.66,NW,321,11.0,11.0,15,0.00,,,0.00,Wunderground v.1.15,2013-06-14 01:40:00,
2013-06-13 18:45:00,88.2,34.7,29.67,NW,317,10.0,11.0,15,0.00,,,0.00,Wunderground v.1.15,2013-06-14 01:45:00,
2013-06-13 18:55:00,87.6,34.2,29.67,WNW,301,11.0,11.0,15,0.00,,,0.00,Wunderground v.1.15,2013-06-14 01:55:00,
2013-06-13 19:00:00,87.4,34.1,29.67,WNW,289,11.0,11.0,15,0.00,,,0.00,Wunderground v.1.15,2013-06-14 02:00:00,
2013-06-13 19:05:00,87.2,33.9,29.67,NW,306,10.0,16.0,15,0.00,,,0.00,Wunderground v.1.15,2013-06-14 02:05:00,
2013-06-13 19:15:00,86.7,33.5,29.67,WNW,301,11.0,13.0,15,0.00,,,0.00,Wunderground v.1.15,2013-06-14 02:15:00,
2013-06-13 19:20:00,86.5,33.4,29.67,WNW,302,10.0,13.0,15,0.00,,,0.00,Wunderground v.1.15,2013-06-14 02:20:00,
2013-06-13 19:30:00,86.1,33.0,29.67,West,277,9.0,9.0,15,0.00,,,0.00,Wunderground v.1.15,2013-06-14 02:30:00,
2013-06-13 19:35:00,86.3,33.2,29.68,WNW,297,9.0,9.0,15,0.00,,,0.00,Wunderground v.1.15,2013-06-14 02:35:00,
2013-06-13 19:40:00,85.9,32.9,29.68,WNW,293,8.0,8.0,15,0.00,,,0.00,Wunderground v.1.15,2013-06-14 02:40:00,
2013-06-13 19:45:00,85.5,34.2,29.68,WNW,301,8.0,9.0,16,0.00,,,0.00,Wunderground v.1.15,2013-06-14 02:45:00,
2013-06-13 19:50:00,85.5,34.2,29.68,WNW,287,8.0,8.0,16,0.00,,,0.00,Wunderground v.1.15,2013-06-14 02:50:00,
2013-06-13 20:00:00,85.1,33.8,29.68,NW,325,5.0,5.0,16,0.00,,,0.00,Wunderground v.1.15,2013-06-14 03:00:00,
2013-06-13 20:05:00,84.9,33.7,29.69,WNW,286,6.0,6.0,16,0.00,,,0.00,Wunderground v.1.15,2013-06-14 03:05:00,
2013-06-13 20:15:00,85.1,33.8,29.69,WNW,289,7.0,8.0,16,0.00,,,0.00,Wunderground v.1.15,2013-06-14 03:15:00,
2013-06-13 20:20:00,85.3,34.0,29.69,WNW,283,7.0,9.0,16,0.00,,,0.00,Wunderground v.1.15,2013-06-14 03:20:00,
2013-06-13 20:25:00,85.1,33.8,29.69,WNW,298,7.0,9.0,16,0.00,,,0.00,Wunderground v.1.15,2013-06-14 03:25:00,
2013-06-13 20:35:00,84.9,33.7,29.70,West,267,6.0,6.0,16,0.00,,,0.00,Wunderground v.1.15,2013-06-14 03:35:00,
2013-06-13 20:40:00,84.9,33.7,29.70,West,274,6.0,6.0,16,0.00,,,0.00,Wunderground v.1.15,2013-06-14 03:40:00,
2013-06-13 20:45:00,84.9,33.7,29.70,WNW,284,6.0,6.0,16,0.00,,,0.00,Wunderground v.1.15,2013-06-14 03:45:00,
2013-06-13 20:50:00,84.9,33.7,29.71,West,277,6.0,6.0,16,0.00,,,0.00,Wunderground v.1.15,2013-06-14 03:50:00,
2013-06-13 20:55:00,84.7,35.0,29.71,West,279,6.0,6.0,17,0.00,,,0.00,Wunderground v.1.15,2013-06-14 03:55:00,
2013-06-13 21:05:00,84.3,34.7,29.72,West,280,5.0,5.0,17,0.00,,,0.00,Wunderground v.1.15,2013-06-14 04:05:00,
2013-06-13 21:10:00,84.0,34.5,29.72,West,281,5.0,5.0,17,0.00,,,0.00,Wunderground v.1.15,2013-06-14 04:10:00,
2013-06-13 21:15:00,84.0,34.5,29.72,WNW,283,5.0,5.0,17,0.00,,,0.00,Wunderground v.1.15,2013-06-14 04:15:00,
2013-06-13 21:20:00,83.8,34.3,29.73,WNW,289,5.0,7.0,17,0.00,,,0.00,Wunderground v.1.15,2013-06-14 04:20:00,
2013-06-13 21:25:00,83.8,35.8,29.73,WNW,289,5.0,7.0,18,0.00,,,0.00,Wunderground v.1.15,2013-06-14 04:25:00,
2013-06-13 21:30:00,83.6,35.6,29.73,WNW,289,5.0,5.0,18,0.00,,,0.00,Wunderground v.1.15,2013-06-14 04:30:00,
2013-06-13 21:40:00,83.6,35.6,29.73,WNW,287,5.0,5.0,18,0.00,,,0.00,Wunderground v.1.15,2013-06-14 04:40:00,
2013-06-13 21:45:00,83.4,36.8,29.73,WNW,293,5.0,5.0,19,0.00,,,0.00,Wunderground v.1.15,2013-06-14 04:45:00,
2013-06-13 21:50:00,83.4,36.8,29.74,WNW,294,6.0,6.0,19,0.00,,,0.00,Wunderground v.1.15,2013-06-14 04:50:00,
2013-06-13 21:55:00,83.2,36.6,29.74,WNW,294,5.0,6.0,19,0.00,,,0.00,Wunderground v.1.15,2013-06-14 04:55:00,
2013-06-13 22:00:00,83.0,36.5,29.74,West,275,5.0,6.0,19,0.00,,,0.00,Wunderground v.1.15,2013-06-14 05:00:00,
2013-06-13 22:05:00,83.0,36.5,29.74,WNW,284,6.0,6.0,19,0.00,,,0.00,Wunderground v.1.15,2013-06-14 05:05:00,
2013-06-13 22:15:00,82.6,36.1,29.74,WNW,283,3.0,5.0,19,0.00,,,0.00,Wunderground v.1.15,2013-06-14 05:15:00,
2013-06-13 22:20:00,82.6,37.5,29.74,WNW,292,4.0,5.0,20,0.00,,,0.00,Wunderground v.1.15,2013-06-14 05:20:00,
2013-06-13 22:25:00,82.6,36.1,29.74,WNW,292,5.0,5.0,19,0.00,,,0.00,Wunderground v.1.15,2013-06-14 05:25:00,
2013-06-13 22:30:00,82.4,37.3,29.74,WNW,292,4.0,4.0,20,0.00,,,0.00,Wunderground v.1.15,2013-06-14 05:30:00,
2013-06-13 22:35:00,81.8,36.8,29.74,NW,322,3.0,4.0,20,0.00,,,0.00,Wunderground v.1.15,2013-06-14 05:35:00,
2013-06-13 22:40:00,81.4,36.5,29.74,NW,321,3.0,6.0,20,0.00,,,0.00,Wunderground v.1.15,2013-06-14 05:40:00,
2013-06-13 22:45:00,81.4,37.7,29.74,NW,321,4.0,6.0,21,0.00,,,0.00,Wunderground v.1.15,2013-06-14 05:45:00,
2013-06-13 22:50:00,81.4,37.7,29.74,NW,321,4.0,4.0,21,0.00,,,0.00,Wunderground v.1.15,2013-06-14 05:50:00,
2013-06-13 22:55:00,81.1,37.5,29.74,NW,321,3.0,4.0,21,0.00,,,0.00,Wunderground v.1.15,2013-06-14 05:55:00,
2013-06-13 23:00:00,80.9,38.5,29.74,NW,321,3.0,3.0,22,0.00,,,0.00,Wunderground v.1.15,2013-06-14 06:00:00,
2013-06-13 23:05:00,80.7,38.3,29.74,NW,321,3.0,3.0,22,0.00,,,0.00,Wunderground v.1.15,2013-06-14 06:05:00,
2013-06-13 23:15:00,80.1,37.8,29.75,NW,321,2.0,3.0,22,0.00,,,0.00,Wunderground v.1.15,2013-06-14 06:15:00,
2013-06-13 23:20:00,79.9,37.6,29.75,NW,321,1.0,1.0,22,0.00,,,0.00,Wunderground v.1.15,2013-06-14 06:20:00,
2013-06-13 23:25:00,79.4,38.4,29.75,NW,321,0.0,1.0,23,0.00,,,0.00,Wunderground v.1.15,2013-06-14 06:25:00,
2013-06-13 23:30:00,77.9,38.2,29.75,NW,323,1.0,2.0,24,0.00,,,0.00,Wunderground v.1.15,2013-06-14 06:30:00,
2013-06-13 23:35:00,77.0,37.4,29.75,NW,323,2.0,2.0,24,0.00,,,0.00,Wunderground v.1.15,2013-06-14 06:35:00,
2013-06-13 23:45:00,75.4,37.1,29.75,NW,323,2.0,2.0,25,0.00,,,0.00,Wunderground v.1.15,2013-06-14 06:45:00,
2013-06-13 23:50:00,75.3,37.0,29.75,NW,322,2.0,2.0,25,0.00,,,0.00,Wunderground v.1.15,2013-06-14 06:50:00,
2013-06-13 23:55:00,75.4,37.1,29.75,NW,321,2.0,2.0,25,0.00,,,0.00,Wunderground v.1.15,2013-06-14 06:55:00,